Weather History for Gallivare, Sweden

Change the Weather History Date:

Tuesday, February 5, 2013

  Actual Average Record
Temperature  
Mean Temperature 20 °F -  
Max Temperature 24 °F - - ()
Min Temperature 15 °F - - ()
Degree Days  
Heating Degree Days 46    
Moisture  
Dew Point 20 °F    
Average Humidity 95    
Maximum Humidity 100    
Minimum Humidity 93    
Precipitation  
Precipitation 0.00 in - - ()
Sea Level Pressure  
Sea Level Pressure 29.25 in    
Wind  
Wind Speed 11 mph ()    
Max Wind Speed 17 mph    
Max Gust Speed -    
Visibility 4.3 miles    
Events Snow    
T = Trace of Precipitation, MM = Missing Value Source: Averaged Metar Reports

Daily Weather History Graph

Daily Weather History Graph

Search for Another Location

Airport:

Trip Planner

Search our weather history database for the weather conditions in past years. The results will help you decide how hot, cold, wet, or windy it might be!

Date:

Astronomy

Feb. 05, 2013 Rise Set
Actual Time 8:28 AM CET 3:14 PM CET
Civil Twilight 7:23 AM CET 4:19 PM CET
Nautical Twilight 6:17 AM CET 5:25 PM CET
Astronomical Twilight 5:15 AM CET 6:27 PM CET
Moon 5:03 AM CET (2/5) 8:58 AM CET (2/5)
Length of Visible Light 8h 55m
Length of Day
6h 46m
Waning Crescent, 29% of the Moon is Illuminated
Feb 5
Waning Crescent
Feb 10
New
Feb 17
First Quarter
Feb 25
Full
Mar 4
Last Quarter

Hourly Weather History & Observations

Time (CET) Temp. Windchill Dew Point Humidity Pressure Visibility Wind Dir Wind Speed Gust Speed Precip Events Conditions
12:20 AM 23.0 °F 11.7 °F 21.2 °F 93% 29.03 in 1.7 mi ESE 11.5 mph - N/A Snow Light Snow
12:50 AM 23.0 °F 11.7 °F 23.0 °F 100% 29.03 in 1.6 mi ESE 11.5 mph - N/A Snow Light Snow
1:50 AM 23.0 °F 12.4 °F 23.0 °F 100% 29.03 in 1.7 mi East 10.4 mph - N/A Snow Light Snow
2:20 AM 24.8 °F 16.1 °F 23.0 °F 93% 29.03 in 1.6 mi East 8.1 mph - N/A Snow Light Snow
2:50 AM 24.8 °F 15.3 °F 23.0 °F 93% 29.03 in 1.7 mi East 9.2 mph - N/A Snow Light Snow
3:20 AM 24.8 °F 14.6 °F 24.8 °F 100% 29.06 in 1.5 mi ESE 10.4 mph - N/A Snow Light Snow
3:50 AM 24.8 °F 14.0 °F 24.8 °F 100% 29.06 in 1.1 mi ESE 11.5 mph - N/A Snow Light Snow
4:20 AM 24.8 °F 14.6 °F 23.0 °F 93% 29.06 in 1.4 mi ESE 10.4 mph - N/A Snow Light Snow
4:50 AM 24.8 °F 14.6 °F 23.0 °F 93% 29.06 in 1.9 mi East 10.4 mph - N/A Snow Snow
5:20 AM 24.8 °F 12.9 °F 23.0 °F 93% 29.09 in 4.3 mi ESE 13.8 mph - N/A Snow Snow
5:50 AM 24.8 °F 12.9 °F 23.0 °F 93% 29.09 in - ESE 13.8 mph - N/A Snow Snow
6:20 AM 24.8 °F 13.4 °F 23.0 °F 93% 29.09 in 3.7 mi ESE 12.7 mph - N/A Snow Snow
6:50 AM 24.8 °F 13.4 °F 23.0 °F 93% 29.12 in 3.7 mi ESE 12.7 mph - N/A Snow Snow
7:20 AM 23.0 °F 11.1 °F 23.0 °F 100% 29.12 in - ESE 12.7 mph - N/A Snow Snow
7:50 AM 23.0 °F 10.6 °F 23.0 °F 100% 29.12 in - ESE 13.8 mph - N/A Snow Snow
8:20 AM 23.0 °F 10.6 °F 23.0 °F 100% 29.15 in - ESE 13.8 mph - N/A Snow Snow
8:50 AM 23.0 °F 11.1 °F 21.2 °F 93% 29.15 in - ESE 12.7 mph - N/A Snow Snow
9:20 AM 23.0 °F 11.1 °F 21.2 °F 93% 29.18 in - ESE 12.7 mph - N/A Snow Snow
9:50 AM 23.0 °F 11.1 °F 21.2 °F 93% 29.18 in 1.7 mi East 12.7 mph - N/A Snow Snow
10:20 AM 21.2 °F 6.8 °F 21.2 °F 100% 29.21 in 2.8 mi ESE 17.3 mph - N/A Snow Snow
10:50 AM 21.2 °F 8.3 °F 21.2 °F 100% 29.21 in 6.2 mi East 13.8 mph - N/A Snow Light Snow
11:20 AM 21.2 °F 8.9 °F 21.2 °F 100% 29.24 in 6.2 mi ESE 12.7 mph - N/A Snow Light Snow
11:50 AM 21.2 °F 8.3 °F 21.2 °F 100% 29.24 in 6.2 mi ESE 13.8 mph - N/A Snow Light Snow
12:20 PM 21.2 °F 8.9 °F 21.2 °F 100% 29.27 in 6.2 mi ESE 12.7 mph - N/A   Overcast
12:50 PM 21.2 °F 8.9 °F 19.4 °F 93% 29.27 in 6.2 mi ESE 12.7 mph - N/A   Overcast
1:20 PM 21.2 °F 8.9 °F 19.4 °F 93% 29.27 in 6.2 mi ESE 12.7 mph - N/A   Overcast
1:50 PM 21.2 °F 9.5 °F 19.4 °F 93% 29.30 in 6.2 mi ESE 11.5 mph - N/A Snow Light Snow
2:20 PM 21.2 °F 7.3 °F 19.4 °F 93% 29.30 in 6.2 mi ESE 16.1 mph - N/A   Ice Crystals
2:50 PM 19.4 °F 6.6 °F 19.4 °F 100% 29.30 in 6.2 mi ESE 12.7 mph - N/A   Overcast
3:20 PM 19.4 °F 6.6 °F 17.6 °F 93% 29.33 in 6.2 mi ESE 12.7 mph - N/A   Ice Crystals
3:50 PM 19.4 °F 6.6 °F 17.6 °F 93% 29.33 in 6.2 mi ESE 12.7 mph - N/A Snow Light Snow
4:20 PM 19.4 °F 7.2 °F 17.6 °F 93% 29.36 in 6.2 mi ESE 11.5 mph - N/A Snow Light Snow
4:50 PM 19.4 °F 7.2 °F 17.6 °F 93% 29.36 in 6.2 mi ESE 11.5 mph - N/A Snow Light Snow
5:20 PM 19.4 °F 6.0 °F 17.6 °F 93% 29.36 in 5.6 mi SE 13.8 mph - N/A Snow Light Snow
5:50 PM 19.4 °F 7.2 °F 17.6 °F 93% 29.39 in 6.2 mi ESE 11.5 mph - N/A   Ice Crystals
6:20 PM 17.6 °F 4.3 °F 17.6 °F 100% 29.39 in 6.2 mi ESE 12.7 mph - N/A   Ice Crystals
6:50 PM 17.6 °F 6.4 °F 15.8 °F 93% 29.42 in 6.2 mi ESE 9.2 mph - N/A Snow Light Snow
7:20 PM 17.6 °F 4.3 °F 15.8 °F 93% 29.42 in 6.2 mi ESE 12.7 mph - N/A Snow Light Snow
7:50 PM 17.6 °F 5.0 °F 15.8 °F 93% 29.44 in 6.2 mi SE 11.5 mph - N/A Snow Light Snow
8:20 PM 17.6 °F 5.0 °F 15.8 °F 93% 29.44 in 6.2 mi ESE 11.5 mph - N/A Snow Light Snow
8:50 PM 17.6 °F 4.3 °F 15.8 °F 93% 29.44 in - East 12.7 mph - N/A Snow Light Snow
9:20 PM 15.8 °F 4.2 °F 14.0 °F 93% 29.47 in - ESE 9.2 mph - N/A Snow Light Snow
9:50 PM 15.8 °F 5.1 °F 14.0 °F 93% 29.47 in 2.8 mi ESE 8.1 mph - N/A Snow Light Snow
10:20 PM 15.8 °F 8.6 °F 14.0 °F 93% 29.47 in 1.8 mi ESE 4.6 mph - N/A Snow Light Snow
10:50 PM 15.8 °F 8.6 °F 14.0 °F 93% 29.50 in - ESE 4.6 mph - N/A Snow Light Snow
11:20 PM 15.8 °F 6.1 °F 14.0 °F 93% 29.50 in 1.8 mi ESE 6.9 mph - N/A Snow Light Snow
11:50 PM 15.8 °F 8.6 °F 14.0 °F 93% 29.50 in 1.9 mi ESE 4.6 mph - N/A Snow Light Snow